EW4536 Weather Reports


Display with metric or nautical units.
time (UTC)temp
F
wind
direction
speed
MPH
gust
MPH
rain 1hr
in
rain 24hr
in
rain mn
in
humidity
%
barometer
mb
20260831054601 74 74 0.0 0.0 0.00 0.05 0.00 95 1017.3
20260831053104 74 74 0.0 0.0 0.00 0.05 0.00 94 1017.3
20260831051600 74 74 0.0 2.0 0.00 0.05 0.00 94 1017.3
20260831050106 74 74 0.0 2.0 0.00 0.05 0.00 94 1017.3
20260831044658 75 74 0.0 2.0 0.00 0.05 0.00 94 1017.3
20260831043056 75 74 0.0 0.0 0.00 0.05 0.00 93 1017.3
20260831041553 75 74 0.0 0.0 0.00 0.05 0.00 93 1017.4
20260831040049 76 74 0.0 0.0 0.00 0.05 0.00 92 1017.5
20260831034556 76 74 0.0 2.0 0.00 0.05 0.05 91 1017.5
20260831033054 76 74 0.0 2.0 0.00 0.05 0.05 91 1017.5
20260831031547 76 78 0.0 2.0 0.00 0.05 0.05 91 1017.6
20260831030052 76 79 0.0 2.0 0.00 0.05 0.05 91 1017.8
20260831024554 77 79 0.0 2.0 0.00 0.05 0.05 90 1017.9
20260831023045 77 79 0.0 2.0 0.00 0.05 0.05 90 1017.9
20260831021548 78 79 0.0 2.0 0.00 0.05 0.05 89 1017.8
20260831020045 78 79 0.0 2.0 0.00 0.05 0.05 90 1017.7
20260831014547 78 69 0.0 2.0 0.00 0.08 0.05 90 1017.6
20260831013046 79 68 0.0 2.0 0.00 0.08 0.05 90 1017.6
20260831011547 79 67 0.0 2.0 0.00 0.08 0.05 90 1017.4
20260831010042 79 67 0.0 2.0 0.00 0.08 0.05 89 1017.2
20260831004544 80 67 0.0 2.0 0.00 0.13 0.05 89 1017.3
20260831003043 80 67 0.0 2.0 0.00 0.13 0.05 88 1017.2
20260831001544 80 67 0.0 2.0 0.00 0.13 0.05 87 1017.0
20260831000043 81 63 0.0 3.0 0.00 0.13 0.05 86 1017.0
20260830234543 81 82 1.0 3.0 0.00 0.15 0.05 85 1017.0
20260830233040 82 88 0.0 4.0 0.00 0.15 0.05 84 1017.0
20260830231539 82 40 0.0 3.0 0.00 0.15 0.05 83 1016.9
20260830230039 82 38 0.0 2.0 0.00 0.15 0.05 82 1016.9
20260830224538 82 74 0.0 2.0 0.00 0.18 0.05 80 1016.8
20260830223037 83 74 0.0 2.0 0.00 0.18 0.05 79 1016.8
20260830221541 83 67 1.0 6.0 0.00 0.18 0.05 76 1016.3
20260830220037 84 109 2.0 7.0 0.00 0.18 0.05 75 1016.3
20260830214537 87 84 2.0 8.0 0.00 0.18 0.05 74 1016.3
20260830213036 87 74 3.0 7.0 0.00 0.18 0.05 74 1016.4
20260830211543 87 113 3.0 10.0 0.00 0.18 0.05 72 1016.3
20260830210035 87 84 5.0 10.0 0.00 0.18 0.05 72 1016.3
20260830204532 88 88 2.0 7.0 0.01 0.18 0.05 71 1016.3
20260830203032 86 92 2.0 6.0 0.01 0.18 0.05 78 1016.4
20260830201536 83 45 0.0 3.0 0.01 0.18 0.05 84 1016.5
20260830200029 83 78 1.0 5.0 0.01 0.18 0.05 81 1016.7
20260830194504 91 84 2.0 5.0 0.00 0.17 0.04 66 1016.7
20260830193024 88 117 0.0 4.0 0.00 0.17 0.04 66 1017.0
20260830191609 88 63 1.0 4.0 0.00 0.17 0.04 64 1017.0
20260830190028 90 94 1.0 7.0 0.00 0.17 0.04 62 1016.9
20260830184602 89 103 4.0 10.0 0.00 0.17 0.04 65 1017.1
20260830183040 89 45 2.0 9.0 0.00 0.17 0.04 63 1017.4
20260830181605 89 181 0.0 3.0 0.00 0.17 0.04 66 1017.4
20260830180035 87 153 1.0 3.0 0.00 0.17 0.04 66 1017.7
20260830174617 88 166 1.0 4.0 0.00 0.17 0.04 64 1017.9
20260830173032 88 126 1.0 6.0 0.00 0.17 0.04 64 1018.0
20260830171608 88 136 1.0 4.0 0.00 0.17 0.04 66 1018.2
20260830170025 88 95 1.0 5.0 0.00 0.17 0.04 71 1018.3
20260830164608 87 161 1.0 4.0 0.00 0.17 0.04 69 1018.6
20260830163044 86 108 1.0 6.0 0.00 0.17 0.04 73 1018.9
20260830161606 86 204 1.0 5.0 0.00 0.17 0.04 74 1019.0
20260830160051 85 257 0.0 3.0 0.00 0.17 0.04 77 1019.1
20260830154605 84 196 1.0 4.0 0.00 0.17 0.04 78 1019.3
20260830153030 83 102 0.0 2.0 0.00 0.17 0.04 83 1019.1
20260830151606 82 51 0.0 2.0 0.00 0.17 0.04 83 1019.2
20260830150024 83 52 1.0 3.0 0.00 0.17 0.04 83 1019.3
20260830144606 83 111 1.0 6.0 0.00 0.17 0.04 82 1019.1
20260830143036 82 74 1.0 4.0 0.00 0.17 0.04 85 1019.1
20260830141559 81 44 0.0 4.0 0.00 0.17 0.04 87 1019.1
20260830140024 80 100 2.0 4.0 0.00 0.17 0.04 88 1019.2
20260830134607 79 113 3.0 8.0 0.00 0.17 0.04 91 1019.2
20260830133029 78 94 1.0 7.0 0.00 0.17 0.04 93 1018.9
20260830131605 77 115 2.0 8.0 0.00 0.17 0.04 95 1018.7
20260830130029 76 110 3.0 6.0 0.00 0.17 0.04 95 1018.8
20260830124602 76 101 0.0 4.0 0.01 0.17 0.04 96 1018.6
20260830123035 75 39 0.0 2.0 0.01 0.17 0.04 96 1018.4
20260830121607 74 39 0.0 2.0 0.01 0.17 0.04 97 1018.3
20260830120030 74 39 0.0 2.0 0.01 0.17 0.04 96 1018.3
20260830114612 74 39 0.0 2.0 0.00 0.16 0.03 97 1018.2
20260830113032 73 39 0.0 2.0 0.00 0.16 0.03 96 1018.0
20260830111614 73 103 0.0 0.0 0.00 0.16 0.03 96 1018.0
20260830110040 73 53 0.0 2.0 0.00 0.16 0.03 96 1018.1
20260830104504 73 53 0.0 2.0 0.00 0.16 0.03 96 1017.8
20260830103039 73 53 0.0 2.0 0.02 0.16 0.03 96 1017.5
20260830101611 73 53 0.0 2.0 0.02 0.16 0.03 96 1017.4
20260830100042 73 53 0.0 2.0 0.02 0.16 0.03 96 1017.2
20260830094501 73 53 0.0 2.0 0.02 0.16 0.03 96 1017.2
20260830093038 73 32 0.0 0.0 0.00 0.14 0.01 96 1017.2
20260830091616 73 32 0.0 0.0 0.00 0.14 0.01 96 1017.1
20260830090042 73 32 0.0 0.0 0.00 0.14 0.01 96 1017.3
20260830084608 73 32 0.0 1.0 0.00 0.14 0.01 96 1017.3
20260830083033 73 32 0.0 2.0 0.00 0.14 0.01 96 1017.5
20260830081606 73 32 0.0 0.0 0.00 0.14 0.01 96 1017.7
20260830080021 74 32 0.0 0.0 0.00 0.14 0.01 96 1018.0
20260830074604 73 32 0.0 2.0 0.01 0.14 0.01 96 1018.2
20260830073034 73 32 0.0 2.0 0.01 0.14 0.01 96 1018.3
20260830071559 73 31 0.0 0.0 0.01 0.14 0.01 96 1018.0
20260830070018 73 31 0.0 0.0 0.01 0.14 0.01 96 1017.7
20260830064545 73 31 0.0 0.0 0.00 0.13 0.00 96 1017.8
20260830063011 73 31 0.0 2.0 0.00 0.13 0.00 96 1017.8
20260830061600 73 31 0.0 2.0 0.00 0.13 0.00 96 1017.7
20260830060024 73 248 0.0 2.0 0.00 0.13 0.00 96 1017.7